Weather History for KSPA - October, 2012

Change the Weather History Date:

Sunday, October 7, 2012

  Actual Average (KGSP) Record (KGSP)
Temperature  
Mean Temperature 64 °F 64 °F  
Max Temperature 68 °F 75 °F 92 °F (1884)
Min Temperature 59 °F 53 °F 38 °F (1935)
Degree Days  
Heating Degree Days 2 3  
Month to date heating degree days 17  
Since 1 July heating degree days 34  
Cooling Degree Days 0 2  
Month to date cooling degree days 20  
Year to date cooling degree days 1682  
Growing Degree Days 14 (Base 50)    
Moisture  
Dew Point 59 °F    
Average Humidity 92    
Maximum Humidity 100    
Minimum Humidity 77    
Precipitation  
Precipitation 0.21 in 0.12 in 2.77 in (1922)
Month to date precipitation 0.82  
Year to date precipitation 36.76  
Snow  
Snow 0.00 in 0.00 in 0.00 in ()
Month to date snowfall 0.0  
Since 1 July snowfall 0.0  
Since 1 September snowfall 0.0  
Snow Depth -    
Sea Level Pressure  
Sea Level Pressure 30.03 in    
Wind  
Wind Speed 6 mph (NE)    
Max Wind Speed 14 mph    
Max Gust Speed 23 mph    
Visibility 10 miles    
Events Rain , Thunderstorm    
T = Trace of Precipitation, MM = Missing Value Source: NWS Daily Summary

Daily Weather History Graph

Daily Weather History Graph

Search for Another Location

Airport or City:

Trip Planner

Search our weather history database for the weather conditions in past years. The results will help you decide how hot, cold, wet, or windy it might be!

Date:

Astronomy

Oct. 07, 2012 Rise Set
Actual Time 7:27 AM EDT 7:02 PM EDT
Civil Twilight 7:02 AM EDT 7:28 PM EDT
Nautical Twilight 6:32 AM EDT 7:57 PM EDT
Astronomical Twilight 6:03 AM EDT 8:26 PM EDT
Moon No Moon Rise 1:54 PM EDT (10/7)
Length of Visible Light 12h 25m
Length of Day
11h 35m
Waning Gibbous, 56% of the Moon is Illuminated
Oct 7
Waning Gibbous
Oct 8
Last Quarter
Oct 15
New
Oct 21
First Quarter
Oct 29
Full

Hourly Weather History & Observations

Time (EDT) Temp. Dew Point Humidity Pressure Visibility Wind Dir Wind Speed Gust Speed Precip Events Conditions
12:15 AM 68.0 °F 64.4 °F 88% 29.97 in 10.0 mi North 6.9 mph - N/A   Clear
12:35 AM 68.0 °F 64.4 °F 88% 29.97 in 10.0 mi North 5.8 mph - N/A   Clear
12:55 AM 66.2 °F 64.4 °F 94% 29.97 in 10.0 mi North 5.8 mph - N/A   Clear
1:15 AM 66.2 °F 64.4 °F 94% 29.97 in 10.0 mi NNE 5.8 mph - N/A   Clear
1:35 AM 64.4 °F 64.4 °F 100% 29.97 in 10.0 mi NNE 5.8 mph - N/A   Clear
1:55 AM 64.4 °F 64.4 °F 100% 29.96 in 10.0 mi NNE 4.6 mph - N/A   Clear
2:15 AM 64.4 °F 64.4 °F 100% 29.96 in 10.0 mi NE 4.6 mph - N/A   Clear
2:35 AM 64.4 °F 64.4 °F 100% 29.97 in 10.0 mi NE 5.8 mph - N/A   Mostly Cloudy
2:55 AM 64.4 °F 64.4 °F 100% 29.97 in 10.0 mi NE 6.9 mph - N/A   Overcast
3:15 AM 64.4 °F 64.4 °F 100% 29.97 in 10.0 mi NE 5.8 mph - N/A   Overcast
3:35 AM 64.4 °F 64.4 °F 100% 29.97 in 10.0 mi NE 5.8 mph - N/A   Overcast
4:15 AM 64.4 °F 62.6 °F 94% 29.96 in 10.0 mi NE 8.1 mph - N/A   Overcast
4:35 AM 64.4 °F 62.6 °F 94% 29.96 in 10.0 mi East 5.8 mph - N/A   Overcast
4:55 AM 62.6 °F 60.8 °F 94% 29.96 in 10.0 mi ENE 6.9 mph - N/A Rain Light Rain
5:15 AM 62.6 °F 62.6 °F 100% 29.97 in 10.0 mi ENE 3.5 mph - N/A   Overcast
5:35 AM 62.6 °F 62.6 °F 100% 29.96 in 10.0 mi East 3.5 mph - N/A   Drizzle
5:55 AM 62.6 °F 60.8 °F 94% 29.97 in 10.0 mi NE 4.6 mph - N/A   Overcast
6:15 AM 62.6 °F 60.8 °F 94% 29.96 in 10.0 mi East 4.6 mph - N/A Thunderstorm Overcast
6:35 AM 62.6 °F 62.6 °F 100% 30.00 in 10.0 mi NW 10.4 mph - N/A Thunderstorm Thunderstorm
6:55 AM 60.8 °F 60.8 °F 100% 30.04 in 5.0 mi NNW 13.8 mph 23.0 mph 0.20 in Rain , Thunderstorm Thunderstorms and Rain
7:15 AM 60.8 °F 60.8 °F 100% 30.00 in 10.0 mi NE 5.8 mph - N/A Rain , Thunderstorm Light Thunderstorms and Rain
7:35 AM 60.8 °F 60.8 °F 100% 30.00 in 10.0 mi East 4.6 mph - 0.01 in   Mostly Cloudy
7:55 AM 60.8 °F 60.8 °F 100% 29.99 in 10.0 mi East 5.8 mph - 0.01 in   Overcast
8:15 AM 60.8 °F 60.8 °F 100% 30.00 in 10.0 mi ESE 5.8 mph - N/A   Mostly Cloudy
8:35 AM 60.8 °F 60.8 °F 100% 30.00 in 10.0 mi East 4.6 mph - N/A   Mostly Cloudy
8:55 AM 60.8 °F 60.8 °F 100% 30.02 in 10.0 mi NE 4.6 mph - N/A Thunderstorm Mostly Cloudy
9:15 AM 60.8 °F 60.8 °F 100% 30.03 in 10.0 mi NNE 5.8 mph - N/A Thunderstorm Thunderstorm
9:35 AM 60.8 °F 60.8 °F 100% 30.03 in 10.0 mi NNE 8.1 mph - N/A Rain Light Rain
9:55 AM 59.0 °F 59.0 °F 100% 30.04 in 10.0 mi NE 4.6 mph - N/A   Overcast
10:15 AM 60.8 °F 59.0 °F 94% 30.03 in 10.0 mi East 4.6 mph - N/A   Overcast
10:35 AM 60.8 °F 59.0 °F 94% 30.04 in 10.0 mi NE 5.8 mph - N/A   Overcast
10:55 AM 60.8 °F 59.0 °F 94% 30.05 in 10.0 mi NE 6.9 mph - N/A   Overcast
11:15 AM 60.8 °F 59.0 °F 94% 30.05 in 10.0 mi NE 6.9 mph - N/A   Overcast
11:35 AM 60.8 °F 59.0 °F 94% 30.04 in 10.0 mi ENE 5.8 mph - N/A   Overcast
11:55 AM 60.8 °F 59.0 °F 94% 30.04 in 10.0 mi NE 6.9 mph - N/A   Overcast
12:15 PM 60.8 °F 59.0 °F 94% 30.05 in 10.0 mi NE 5.8 mph - N/A   Overcast
12:35 PM 62.6 °F 57.2 °F 82% 30.05 in 10.0 mi NE 5.8 mph - N/A   Overcast
12:55 PM 62.6 °F 57.2 °F 82% 30.04 in 10.0 mi NNE 6.9 mph - N/A   Overcast
1:15 PM 62.6 °F 57.2 °F 82% 30.05 in 10.0 mi NE 4.6 mph - N/A   Overcast
1:35 PM 62.6 °F 59.0 °F 88% 30.04 in 10.0 mi NE 4.6 mph - N/A   Overcast
1:55 PM 62.6 °F 57.2 °F 82% 30.02 in 10.0 mi Calm Calm - N/A   Overcast
2:15 PM 62.6 °F 59.0 °F 88% 30.01 in 10.0 mi ENE 5.8 mph - N/A   Overcast
2:35 PM 64.4 °F 59.0 °F 83% 30.02 in 10.0 mi NE 3.5 mph - N/A   Overcast
2:55 PM 62.6 °F 59.0 °F 88% 30.01 in 10.0 mi NE 5.8 mph - N/A   Overcast
3:15 PM 64.4 °F 59.0 °F 83% 30.01 in 10.0 mi NE 3.5 mph - N/A   Overcast
3:55 PM 64.4 °F 59.0 °F 83% 30.02 in 10.0 mi NE 3.5 mph - N/A   Overcast
4:15 PM 64.4 °F 59.0 °F 83% 30.01 in 10.0 mi NE 5.8 mph - N/A   Overcast
4:35 PM 64.4 °F 59.0 °F 83% 30.02 in 10.0 mi NE 6.9 mph - N/A   Overcast
4:55 PM 62.6 °F 59.0 °F 88% 30.03 in 10.0 mi NNE 8.1 mph - N/A   Overcast
5:15 PM 62.6 °F 59.0 °F 88% 30.04 in 10.0 mi NE 5.8 mph - N/A   Overcast
5:35 PM 62.6 °F 59.0 °F 88% 30.05 in 10.0 mi NE 6.9 mph - N/A   Overcast
5:55 PM 60.8 °F 59.0 °F 94% 30.03 in 10.0 mi NE 9.2 mph - N/A   Overcast
6:15 PM 60.8 °F 59.0 °F 94% 30.05 in 10.0 mi ENE 6.9 mph - N/A   Overcast
6:35 PM 60.8 °F 59.0 °F 94% 30.06 in 10.0 mi NE 6.9 mph - N/A   Overcast
6:55 PM 60.8 °F 57.2 °F 88% 30.07 in 10.0 mi NE 5.8 mph - N/A   Overcast
7:15 PM 59.0 °F 57.2 °F 94% 30.06 in 10.0 mi ENE 6.9 mph - N/A   Overcast
7:35 PM 59.0 °F 55.4 °F 88% 30.07 in 10.0 mi NE 8.1 mph - N/A   Overcast
7:55 PM 59.0 °F 55.4 °F 88% 30.08 in 10.0 mi NE 9.2 mph - N/A   Overcast
8:15 PM 59.0 °F 55.4 °F 88% 30.08 in 10.0 mi ENE 5.8 mph - N/A   Overcast
8:35 PM 59.0 °F 55.4 °F 88% 30.08 in 10.0 mi ENE 4.6 mph - N/A   Overcast
9:15 PM 59.0 °F 55.4 °F 88% 30.10 in 10.0 mi NE 6.9 mph - N/A   Overcast
9:35 PM 59.0 °F 53.6 °F 82% 30.10 in 10.0 mi NE 8.1 mph - N/A   Overcast
9:55 PM 59.0 °F 53.6 °F 82% 30.10 in 10.0 mi NE 6.9 mph - N/A   Overcast
10:15 PM 59.0 °F 53.6 °F 82% 30.11 in 10.0 mi NNE 9.2 mph - N/A   Overcast
10:35 PM 59.0 °F 53.6 °F 82% 30.12 in 10.0 mi NE 6.9 mph - N/A   Overcast
10:55 PM 59.0 °F 53.6 °F 82% 30.11 in 10.0 mi NE 6.9 mph - N/A   Overcast
11:15 PM 59.0 °F 53.6 °F 82% 30.12 in 10.0 mi ENE 3.5 mph - N/A   Overcast
11:35 PM 59.0 °F 53.6 °F 82% 30.12 in 10.0 mi NE 9.2 mph - N/A   Overcast
11:55 PM 59.0 °F 51.8 °F 77% 30.13 in 10.0 mi ENE 6.9 mph - N/A   Overcast